Date,TemperatureHighF,TemperatureAvgF,TemperatureLowF,DewpointHighF,DewpointAvgF,DewpointLowF,HumidityHigh,HumidityAvg,HumidityLow,PressureMaxIn,PressureMinIn,WindSpeedMaxMPH,WindSpeedAvgMPH,GustSpeedMaxMPH,PrecipitationSumIn
2013-2-1,78.5,58.1,46.4,50.0,44.1,38.0,91,62,27,30.19,30.12,8,1,14,0.00
2013-2-2,74.5,61.0,49.8,55.0,47.1,41.0,86,62,30,30.20,30.13,5,1,10,0.00
2013-2-3,73.5,58.5,45.8,53.0,47.9,44.0,96,71,37,30.15,30.02,6,1,8,0.00
2013-2-4,66.8,52.6,42.0,53.0,47.5,41.0,98,84,58,30.11,30.00,6,1,9,0.00
2013-2-5,57.6,51.4,44.2,51.0,48.6,43.0,98,90,79,30.11,30.01,5,1,7,0.01
2013-2-6,65.5,53.9,45.0,51.0,47.7,43.0,97,81,51,30.12,30.02,10,2,10,0.00
2013-2-7,60.0,50.4,40.6,49.0,45.0,39.0,96,82,63,30.16,29.99,8,1,13,0.00
2013-2-8,53.2,46.5,38.0,43.0,39.3,35.0,92,76,58,29.99,29.88,12,3,20,0.00
2013-2-9,59.9,47.3,36.9,43.0,36.4,32.0,88,69,38,30.11,29.96,11,3,11,0.00
2013-2-10,60.0,47.3,39.4,44.0,39.9,36.0,92,76,47,30.11,30.03,8,1,11,0.00
2013-2-11,65.7,49.9,37.2,42.0,34.6,18.4,92,63,18,30.26,30.09,17,4,17,0.00
2013-2-12,63.1,50.2,36.4,39.0,32.2,25.0,83,53,27,30.36,30.25,8,1,11,0.00
2013-2-13,64.5,50.6,36.0,49.0,38.5,31.0,87,65,38,30.29,30.16,5,1,12,0.00
2013-2-14,72.3,52.8,37.8,53.0,41.7,34.0,89,68,43,30.22,30.08,5,1,9,0.00
2013-2-15,80.5,67.0,49.4,37.0,27.6,21.0,55,25,11,30.21,30.12,17,5,24,0.00
2013-2-16,80.0,63.7,45.5,38.0,26.1,18.0,59,27,10,30.17,29.99,12,2,12,0.00
2013-2-17,64.8,51.9,39.1,51.0,38.6,27.0,93,62,40,30.04,29.94,8,1,14,0.00
2013-2-18,62.9,53.9,45.9,49.1,46.9,44.7,96,78,55,30.07,29.96,14,2,14,0.00
2013-2-19,57.0,50.4,43.8,47.1,44.2,37.1,93,80,58,29.99,29.74,11,2,18,0.11
2013-2-20,63.2,48.0,34.9,43.0,32.3,26.0,84,57,27,30.01,29.75,11,2,16,0.00
2013-2-21,61.7,49.7,38.7,44.0,35.8,29.0,83,60,38,30.11,30.00,9,2,13,0.00
2013-2-22,65.2,51.3,37.8,46.0,35.5,30.0,86,57,30,30.21,30.12,8,2,12,0.00
2013-2-23,64.9,52.5,37.4,51.0,40.5,28.0,85,65,39,30.17,29.92,8,2,12,0.00
2013-2-24,62.0,52.7,44.1,34.0,23.8,11.0,65,35,14,30.21,30.02,20,4,25,0.00
2013-2-25,66.7,51.5,38.9,43.0,29.2,17.0,82,47,18,30.24,30.08,7,1,11,0.00
2013-2-26,69.9,53.2,36.0,44.0,36.2,24.0,82,57,27,30.14,30.01,6,1,10,0.00
2013-2-27,76.0,60.4,51.3,29.0,19.7,14.0,42,22,11,30.30,30.13,19,4,19,0.00
2013-2-28,79.4,61.4,43.1,44.6,28.6,17.1,61,33,11,30.33,30.25,9,2,14,0.00